SL-16 R/B, 23705

Orbit data source: Space-Track

SL-16 R/B, 23705 is space debris in LEO originally from a launch on Tue, 31 Oct 1995 UTC launched from the Tyuratam Missile And Space Complex (TTMTR). Debris objects in space refer to the collection of defunct objects orbiting the Earth. Examples of debris include non-operational satellites, rocket bodies, and fragments generated from explosions, collisions, or faulty payload assembly.

Loading next visibility...
SL-16 R/B details
Identifier
23705, 1995-058B
Orbit
LEO
Last TLE update10 hours ago
Origin
Flag of CISVKS (CIS)
ManufacturerYuzhnoe
MissionSpacecraft
Bus & Motor11S772, Unknown motor
Mass9,000 kg wet, 9,000 kg dry
Launch date (UTC)
1995-10-31 (29 years ago)
Launch vehicleUnknown
Launch site
Tyuratam Missile And Space Complex (TTMTR)
Object type
Payload
Rocket body
Debris
Shape & HBRCyl, 10.4 m
Radar Cross Section37.829 m², Large (>1 m²)

Expand to show TLE details & history

TLE from 10 hours ago
0 SL-16 R/B
1 23705U 95058B   24361.48058171 -.00000119  00000-0 -36407-4 0  9991
2 23705  71.0215  20.2136 0010365  62.4526 297.7649 14.15408393505843
Epoch: 2024-12-26T11:32Z
Definitive object data (Epoch: 2024-12-26T11:32:02.259Z)
Latitude-0.00002°
Longitude111.74481°
Altitude839.845 km
Speed7.435 km/s
True Right ascension01h 20m 51s
True Declination0° 00' 00"
Sunlit
Object was in daylight at TLE epoch
Visualization TLE readout
Latitude-71.03838°
Longitude15.57408°
Altitude873.49 km
Speed7.412 km/s
Apparent Right ascension10h 01m 11s
Apparent Declination-74° 49' 30"
Sunlit
Object is in daylight
Visualization observer readout
Local Sidereal Time20:39:37
Azimuth188.894° SSW
Elevation-53.851°
Doppler factor1
Orbital elements
Apogee altitude846.326 km
Perigee altitude831.365 km
Semi-major axis7,216.983 km
Eccentricity0.0010365
Inclination71.0215°
RAAN20.2136°
Arg. of periapsis62.4526°
True anomaly297.65974°
Mean anomaly297.7649°
Eccentric anomaly297.71233°
Mean motion3.54005 °/min
BSTAR-0.000036407
Orbital period101.69 mins
Loading maneuver chart data...
Loading historical data...
Loading historical data...
Loading historical data...
Loading historical data...
Loading historical data...
Loading historical data...
Loading historical data...

SL-16 R/B Visibility forecast

Observer location: undefined°, undefined

Span
Click to sort rows by Start time (UTC) header in descending order
Start Az.
Max El. time (UTC)
Max El. Az.
Max El.
End time (UTC)
End Az.
9 mins2024-12-27 02:55:39.891Z202.949° SW2024-12-27 02:59:39.891Z216.627° SW44.51°2024-12-27 03:04:39.891Z22.25° NNE
8 mins2024-12-27 11:50:39.891Z359.738° N2024-12-27 11:54:39.891Z66.709° ENE31.876°2024-12-27 11:58:39.891Z123.575° SE
8 mins2024-12-27 13:34:39.891Z306.786° NW2024-12-27 13:38:39.891Z248.969° W25.214°2024-12-27 13:42:39.891Z201.31° SSW
|